Location: Unspecified
(0.0000°N, 0.0000°E)
Time: 18:05:06
(UTC+00:00)

STARLINK 1041 - Pass Details

Date: 23 January 2020
Orbit: 549 x 550 km, 53.0° (Epoch: 23 January)

Event Time Altitude Azimuth Distance (km) Brightness Sun altitude
Exits shadow 05:42:46 - 266° (W) 2,137 6.1 -6.8°
Reaches altitude 10° 05:44:24 10° 284° (WNW) 1,813 5.6 -6.4°
Maximum altitude 05:45:52 12° 305° (NW) 1,709 5.5 -6.1°
Drops below altitude 10° 05:47:19 10° 326° (NW) 1,810 5.8 -5.7°
Sets 05:50:58 0° 359° (N) 2,698 6.9 -4.9°
